Photometre #253[Standard_N] Modena AOT

File : 20220920_253.hum

20/09/2022,05:50:55,TEMP=12.8,BA=5.36,STAT.A
20/09/2022,05:54:31,TEMP=13.1,BA=5.36,STAT.A
20/09/2022,05:58:44,TEMP=13.5,BA=5.36,STAT.A
20/09/2022,06:03:44,TEMP=13.9,BA=5.28,STAT.A
20/09/2022,06:09:46,TEMP=14.3,BA=5.28,STAT.A
20/09/2022,06:17:11,TEMP=15.0,BA=5.40,STAT.A
20/09/2022,06:26:37,TEMP=15.7,BA=5.40,STAT.B
20/09/2022,06:33:56,TEMP=16.2,BA=5.44,STAT.A
20/09/2022,06:36:09,TEMP=16.2,BA=5.44,STAT.A
20/09/2022,06:41:50,TEMP=16.3,BA=5.40,STAT.A
20/09/2022,06:48:16,TEMP=16.5,BA=5.40,STAT.A
20/09/2022,06:55:42,TEMP=16.7,BA=5.40,STAT.C
20/09/2022,07:06:55,TEMP=17.2,BA=5.44,STAT.A
20/09/2022,07:14:32,TEMP=17.3,BA=5.44,STAT.A
20/09/2022,07:26:47,TEMP=18.0,BA=5.48,STAT.A
20/09/2022,07:41:52,TEMP=18.8,BA=5.52,STAT.A
20/09/2022,08:01:03,TEMP=19.6,BA=5.52,STAT.B
20/09/2022,08:10:23,TEMP=20.5,BA=5.52,STAT.F
20/09/2022,08:25:23,TEMP=21.0,BA=5.52,STAT.D
20/09/2022,08:40:23,TEMP=21.4,BA=5.52,STAT.D
20/09/2022,08:55:23,TEMP=21.7,BA=5.56,STAT.D
20/09/2022,09:10:23,TEMP=21.8,BA=5.56,STAT.F
20/09/2022,09:25:23,TEMP=22.5,BA=5.56,STAT.D
20/09/2022,09:40:23,TEMP=22.5,BA=5.56,STAT.D
20/09/2022,09:55:23,TEMP=22.5,BA=5.56,STAT.D
20/09/2022,10:10:23,TEMP=23.1,BA=5.56,STAT.F
20/09/2022,10:25:23,TEMP=23.8,BA=5.56,STAT.D
20/09/2022,10:40:23,TEMP=24.7,BA=5.56,STAT.D
20/09/2022,10:55:22,TEMP=24.7,BA=5.52,STAT.D
20/09/2022,11:10:22,TEMP=24.7,BA=5.52,STAT.E
20/09/2022,11:25:23,TEMP=25.3,BA=5.52,STAT.D
20/09/2022,11:40:25,TEMP=25.2,BA=5.52,STAT.D
20/09/2022,11:55:25,TEMP=25.7,BA=5.52,STAT.D
20/09/2022,12:10:23,TEMP=25.7,BA=5.48,STAT.F
20/09/2022,12:25:23,TEMP=25.9,BA=5.48,STAT.D
20/09/2022,12:40:23,TEMP=26.0,BA=5.48,STAT.D
20/09/2022,12:55:23,TEMP=26.0,BA=5.48,STAT.D
20/09/2022,13:10:23,TEMP=26.2,BA=5.48,STAT.F
20/09/2022,13:25:22,TEMP=25.9,BA=5.48,STAT.D
20/09/2022,13:40:23,TEMP=26.4,BA=5.48,STAT.D
20/09/2022,13:55:22,TEMP=26.9,BA=5.48,STAT.D
20/09/2022,14:10:22,TEMP=27.1,BA=5.44,STAT.F
20/09/2022,14:21:47,TEMP=27.1,BA=5.44,STAT.B
20/09/2022,14:38:53,TEMP=26.7,BA=5.44,STAT.A
20/09/2022,14:53:58,TEMP=26.8,BA=5.48,STAT.A
20/09/2022,15:06:13,TEMP=26.9,BA=5.48,STAT.A
20/09/2022,15:16:27,TEMP=26.5,BA=5.44,STAT.A
20/09/2022,15:25:05,TEMP=26.3,BA=5.44,STAT.C
20/09/2022,15:36:08,TEMP=26.3,BA=5.48,STAT.A
20/09/2022,15:38:57,TEMP=26.3,BA=5.48,STAT.A
20/09/2022,15:44:37,TEMP=26.2,BA=5.44,STAT.A
20/09/2022,15:49:39,TEMP=26.1,BA=5.44,STAT.A
20/09/2022,15:54:08,TEMP=26.1,BA=5.44,STAT.B
20/09/2022,15:55:13,TEMP=26.1,BA=5.44,STAT.s
20/09/2022,16:03:34,TEMP=25.9,BA=5.44,STAT.A
20/09/2022,16:03:45,TEMP=25.9,BA=5.44,STAT.s
20/09/2022,16:11:00,TEMP=25.7,BA=5.48,STAT.A
20/09/2022,16:11:11,TEMP=25.7,BA=5.48,STAT.s
20/09/2022,16:17:02,TEMP=25.3,BA=5.48,STAT.A
20/09/2022,16:17:14,TEMP=25.3,BA=5.48,STAT.s
20/09/2022,16:22:01,TEMP=25.1,BA=5.44,STAT.A
20/09/2022,16:22:12,TEMP=25.1,BA=5.44,STAT.s
20/09/2022,16:26:15,TEMP=25.0,BA=5.44,STAT.A
20/09/2022,16:26:26,TEMP=25.0,BA=5.44,STAT.s
20/09/2022,16:29:50,TEMP=24.9,BA=5.44,STAT.A
20/09/2022,16:30:11,TEMP=24.9,BA=5.44,STAT.s